Weather History for Melbourne, FL

Change the Weather History Date:

Tuesday, July 10, 2012

  Actual Average Record
Temperature  
Mean Temperature 81 °F 82 °F  
Max Temperature 88 °F 91 °F 98 °F (1964)
Min Temperature 74 °F 72 °F 64 °F (1979)
Degree Days  
Heating Degree Days 0 0  
Month to date heating degree days 0 0  
Since 1 June heating degree days 0 0  
Since 1 July heating degree days 0 0  
Cooling Degree Days 16 16  
Month to date cooling degree days 163 160  
Year to date cooling degree days 1608 1348  
Since 1 June cooling degree days 594 622  
Growing Degree Days 32 (Base 50)    
Moisture  
Dew Point 74 °F    
Average Humidity 79    
Maximum Humidity 94    
Minimum Humidity 63    
Precipitation  
Precipitation 0.00 in 0.18 in 2.44 in (1944)
Month to date precipitation 1.01 1.93  
Year to date precipitation 22.10 22.14  
Sea Level Pressure  
Sea Level Pressure 30.03 in    
Wind  
Wind Speed 6 mph (SSE)    
Max Wind Speed 16 mph    
Max Gust Speed 21 mph    
Visibility 10 miles    
Events Thunderstorm    
T = Trace of Precipitation, MM = Missing Value Source: NWS Daily Summary

Daily Weather History Graph

Daily Weather History Graph

Search for Another Location

Airport:

Trip Planner

Search our weather history database for the weather conditions in past years. The results will help you decide how hot, cold, wet, or windy it might be!

Date:

Astronomy

Jul. 10, 2012 Rise Set
Actual Time 6:33 AM EDT 8:22 PM EDT
Civil Twilight 6:07 AM EDT 8:48 PM EDT
Nautical Twilight 5:35 AM EDT 9:20 PM EDT
Astronomical Twilight 5:01 AM EDT 9:53 PM EDT
Moon 12:17 AM EDT (7/10) 1:15 PM EDT (7/10)
Length of Visible Light 14h 41m
Length of Day
13h 48m
Waning Gibbous, 54% of the Moon is Illuminated
Jul 10
Waning Gibbous
Jul 10
Last Quarter
Jul 19
New
Jul 26
First Quarter
Aug 1
Full

Hourly Weather History & Observations

Time (EDT) Temp. Heat Index Dew Point Humidity Pressure Visibility Wind Dir Wind Speed Gust Speed Precip Events Conditions
12:53 AM 77.0 °F - 73.9 °F 90% 30.05 in 10.0 mi WSW 3.5 mph - N/A   Clear
1:53 AM 77.0 °F - 73.9 °F 90% 30.04 in 10.0 mi Calm Calm - N/A   Clear
2:53 AM 75.9 °F - 73.0 °F 91% 30.04 in 10.0 mi Calm Calm - N/A   Clear
3:53 AM 75.0 °F - 73.9 °F 96% 30.01 in 9.0 mi Calm Calm - N/A   Clear
4:53 AM 75.9 °F - 73.9 °F 94% 30.02 in 10.0 mi South 3.5 mph - N/A   Clear
5:53 AM 75.9 °F - 73.0 °F 91% 30.03 in 10.0 mi Calm Calm - N/A   Clear
6:53 AM 75.9 °F - 73.0 °F 91% 30.03 in 10.0 mi Calm Calm - N/A   Clear
7:53 AM 79.0 °F - 75.0 °F 88% 30.04 in 10.0 mi South 5.8 mph - N/A   Clear
8:53 AM 82.0 °F 87.9 °F 73.9 °F 76% 30.04 in 10.0 mi South 6.9 mph - N/A   Clear
9:53 AM 84.9 °F 91.4 °F 73.0 °F 67% 30.05 in 10.0 mi SSE 4.6 mph - N/A   Partly Cloudy
10:53 AM 87.1 °F 95.4 °F 73.9 °F 65% 30.05 in 10.0 mi ESE 5.8 mph - N/A   Mostly Cloudy
11:53 AM 87.1 °F 94.5 °F 73.0 °F 63% 30.04 in 10.0 mi East 13.8 mph - N/A   Mostly Cloudy
12:53 PM 88.0 °F 97.5 °F 75.0 °F 65% 30.04 in 10.0 mi East 13.8 mph 20.7 mph N/A Thunderstorm Scattered Clouds
1:53 PM 82.9 °F 88.0 °F 72.0 °F 69% 30.04 in 10.0 mi SW 8.1 mph - N/A Thunderstorm Scattered Clouds
2:53 PM 82.9 °F 90.2 °F 75.0 °F 77% 30.02 in 10.0 mi ESE 10.4 mph - N/A   Scattered Clouds
3:53 PM 84.0 °F 91.9 °F 75.0 °F 74% 30.01 in 10.0 mi ESE 11.5 mph - N/A   Partly Cloudy
4:53 PM 84.0 °F 90.2 °F 73.0 °F 69% 29.99 in 10.0 mi ESE 12.7 mph - N/A   Clear
5:53 PM 84.0 °F 91.9 °F 75.0 °F 74% 29.98 in 10.0 mi ESE 11.5 mph - N/A   Clear
6:53 PM 82.9 °F 89.4 °F 73.9 °F 74% 29.99 in 10.0 mi SE 10.4 mph - N/A   Clear
7:53 PM 82.9 °F 90.2 °F 75.0 °F 77% 30.01 in 10.0 mi SSE 10.4 mph - N/A   Clear
8:53 PM 82.0 °F 88.6 °F 75.0 °F 79% 30.02 in 10.0 mi SSE 6.9 mph - N/A   Clear
9:53 PM 82.0 °F 88.6 °F 75.0 °F 79% 30.04 in 10.0 mi SSE 5.8 mph - N/A   Clear
10:53 PM 80.1 °F 85.1 °F 75.0 °F 85% 30.04 in 10.0 mi South 3.5 mph - N/A   Scattered Clouds
11:53 PM 78.1 °F - 73.9 °F 87% 30.05 in 10.0 mi WSW 3.5 mph - N/A   Partly Cloudy